Location: Strawberry
(45.6646°N, 111.9596°W)
Time: 16:12:30
(UTC+00:00)

Vanguard 1 Rocket - Visible Passes

Search period start: 26 September 2022 00:00
Search period end: 06 October 2022 00:00
Orbit: 651 x 4224 km, 34.3° (Epoch: 25 September)

Date Brightness Start Highest point End Pass type
(mag) Time Alt. Az. Time Alt. Az. Time Alt. Az.
26 Sep 9.9 03:52:43 10° SSW 04:04:24 27° SSE 04:04:24 27° SSE visible
26 Sep 10.8 06:20:59 10° WSW 06:21:42 12° WSW 06:21:42 12° WSW visible
27 Sep 10.1 02:40:12 10° SSW 02:52:55 23° SSE 02:57:23 19° SE visible
27 Sep 10.1 05:07:10 10° SW 05:14:40 27° SSW 05:14:40 27° SSW visible
28 Sep 10.5 01:29:14 10° S 01:40:15 17° SSE 01:48:29 10° ESE visible
28 Sep 9.7 03:53:21 10° SW 04:07:36 34° SSE 04:07:36 34° SSE visible
28 Sep 10.7 06:22:49 10° WSW 06:24:54 15° WSW 06:24:54 15° WSW visible
29 Sep 9.9 02:40:01 10° SSW 02:55:18 29° SSE 03:00:30 23° SE visible
29 Sep 9.9 05:08:36 10° WSW 05:17:47 32° SW 05:17:47 32° SW visible
30 Sep 10.4 01:27:48 10° SSW 01:42:33 23° SSE 01:52:44 10° ESE visible
30 Sep 9.5 03:54:18 10° SW 04:10:10 39° SSE 04:10:38 39° SSE visible
30 Sep 10.6 06:24:44 10° WSW 06:27:54 17° WSW 06:27:54 17° WSW visible
01 Oct 9.8 02:40:20 10° SW 02:57:40 35° SSE 03:03:26 26° ESE visible
01 Oct 9.8 05:10:11 10° WSW 05:20:42 36° SW 05:20:42 36° SW visible
02 Oct 10.3 01:27:15 10° SSW 01:44:46 29° SSE 01:56:11 10° E visible
02 Oct 9.4 03:55:28 10° SW 04:12:35 44° S 04:13:28 44° SSE visible
02 Oct 10.5 06:26:43 10° WSW 06:30:45 19° WSW 06:30:45 19° WSW visible
03 Oct 9.7 02:41:00 10° SW 02:59:59 41° SSE 03:06:11 28° ESE visible
03 Oct 9.8 05:11:54 10° WSW 05:23:27 39° SW 05:23:27 39° SW visible
04 Oct 10.3 01:27:18 10° SSW 01:46:56 35° SSE 01:58:53 12° E visible
04 Oct 9.4 03:56:50 10° WSW 04:14:57 49° S 04:16:08 48° SSE visible
04 Oct 10.5 06:28:45 10° W 06:33:25 20° WSW 06:33:25 20° WSW visible
05 Oct 9.7 02:41:57 10° SW 03:02:15 46° SSE 03:08:48 31° ESE visible
05 Oct 9.8 05:13:41 10° WSW 05:26:04 41° SW 05:26:04 41° SW visible
